sat.trackr.live / text

‹ back to catalog

ONEWEB-0540

NORAD 54645 · 2022-166D

PAYLOAD ACTIVE UNKNOWN

§ Identity

Operator
Country
UK
Launch date
2022-12-08
Launch site
AFETR
Launch vehicle
Mass (kg)
RCS (m²)

Purposes: comms

External: N2YO · Heavens-Above · Gunter

§ Orbital elements

Epoch: 2026-09-20T03:29:30.540768Z

Period
108.94 min
Inclination
87.9276°
Eccentricity
0.0002115
Mean motion
13.21824522 rev/d
Perigee alt
1,176.2 km
Apogee alt
1,179.4 km
Semi-major
7,555.9 km
B*
1.3958e-4
RAAN
225.0986°
Arg perigee
82.2070°
Mean anomaly
277.9304°
Rev number
18,407

§ Raw data

ONEWEB-05401 54645U 22166D   26263.14549237  .00000071  00000+0  13958-3 0  99912 54645  87.9276 225.0986 0002115  82.2070 277.9304 13.21824522184077

JSON: /api/v1/satellites/54645 · /tle

For live sub-satellite position, see the globe view (requires WebGL).

§ Visibility from observer

Set your observer location to see the next 7 days of passes ≥ 10°. The values pass through the URL so the page stays shareable.

No JS? Fill the form by hand. The geolocation button needs JavaScript.